Portland, ME

9:35 PM EST on December 08, 2019 (GMT -0500)
Portland International

Weather History for KPWM - October, 2019

Change the Weather History Date:

Sunday, October 6, 2019

  Actual Average Record
Temperature  
Mean Temperature 48 °F 52 °F  
Max Temperature 62 °F 62 °F 84 °F (1946)
Min Temperature 33 °F 42 °F 23 °F (1965)
Degree Days  
Heating Degree Days 18 13  
Month to date heating degree days 86 72  
Since 1 July heating degree days 248 293  
Cooling Degree Days 0 0  
Month to date cooling degree days 0 0  
Year to date cooling degree days 474 358  
Moisture  
Dew Point 46 °F    
Average Humidity 80    
Maximum Humidity 92    
Minimum Humidity 53    
Precipitation  
Precipitation T in 0.15 in 7.49 in (1962)
Month to date precipitation 0.39 0.89  
Year to date precipitation 35.12 34.32  
Snow  
Snow 0.00 in 0.00 in 0.00 in (2002)
Month to date snowfall 0.0 0.0  
Since 1 July snowfall 0.0 0.0  
Since 1 September snowfall 0.0 0.0  
Snow Depth 0.00 in    
Sea Level Pressure  
Sea Level Pressure 30.29 in    
Wind  
Wind Speed 5 mph ()    
Max Wind Speed 21 mph    
Max Gust Speed 29 mph    
Visibility 10.0 miles    
Events      
T = Trace of Precipitation, MM = Missing Value Source: Averaged Metar Reports

Daily Weather History Graph

Daily Weather History Graph

Search for Another Location

Airport or City:

Astronomy

Oct. 06, 2019 Rise Set
Actual Time 6:44 AM EDT 6:13 PM EDT
Civil Twilight 6:15 AM EDT 6:42 PM EDT
Nautical Twilight 5:42 AM EDT 7:15 PM EDT
Astronomical Twilight 5:08 AM EDT 7:48 PM EDT
Moon 3:04 PM EDT (10/6) No Moon Set
Length of Visible Light 12h 26m
Length of Day
11h 29m
First Quarter, 59% of the Moon is Illuminated
Oct 6
First Quarter
Oct 13
Full
Oct 21
Last Quarter
Oct 27
New
Nov 4
First Quarter

Hourly Weather History & Observations

Time (EDT) Temp. Windchill Dew Point Humidity Pressure Visibility Wind Dir Wind Speed Gust Speed Precip Events Conditions
12:51 AM 37.9 °F - 34.0 °F 86% 30.39 in 10.0 mi Calm Calm - N/A   Clear
1:51 AM 36.0 °F - 32.0 °F 86% 30.39 in 10.0 mi Calm Calm - N/A   Clear
2:51 AM 37.9 °F - 34.0 °F 86% 30.39 in 10.0 mi Calm Calm - N/A   Clear
3:51 AM 36.0 °F - 33.1 °F 89% 30.38 in 10.0 mi Calm Calm - N/A   Clear
4:51 AM 35.1 °F 32.2 °F 30.9 °F 85% 30.38 in 10.0 mi SSW 3.5 mph - N/A   Clear
5:51 AM 33.1 °F - 30.0 °F 89% 30.39 in 10.0 mi Calm Calm - N/A   Partly Cloudy
6:51 AM 37.0 °F 34.5 °F 33.1 °F 86% 30.38 in 10.0 mi SSW 3.5 mph - N/A   Partly Cloudy
7:51 AM 39.0 °F - 35.1 °F 86% 30.38 in 10.0 mi Calm Calm - N/A   Scattered Clouds
8:51 AM 48.9 °F - 39.0 °F 69% 30.36 in 10.0 mi South 5.8 mph - N/A   Mostly Cloudy
9:51 AM 55.9 °F - 44.1 °F 64% 30.37 in 10.0 mi SSW 9.2 mph - N/A   Mostly Cloudy
11:51 AM 57.9 °F - 45.0 °F 62% 30.34 in 10.0 mi South 13.8 mph 19.6 mph N/A   Overcast
12:51 PM 57.9 °F - 46.9 °F 67% 30.33 in 10.0 mi South 11.5 mph 21.9 mph N/A   Overcast
1:51 PM 57.9 °F - 48.0 °F 70% 30.30 in 10.0 mi South 15.0 mph 25.3 mph N/A   Overcast
2:51 PM 59.0 °F - 50.0 °F 72% 30.28 in 10.0 mi South 13.8 mph 24.2 mph N/A   Overcast
3:51 PM 57.9 °F - 51.1 °F 78% 30.27 in 10.0 mi South 11.5 mph 17.3 mph N/A   Overcast
4:51 PM 59.0 °F - 52.0 °F 78% 30.26 in 10.0 mi South 10.4 mph 20.7 mph N/A   Overcast
5:40 PM 59.0 °F - 52.0 °F 78% 30.25 in 10.0 mi South 10.4 mph 19.6 mph N/A   Overcast
5:51 PM 59.0 °F - 53.1 °F 81% 30.24 in 10.0 mi South 12.7 mph 21.9 mph N/A   Overcast
6:09 PM 59.0 °F - 53.1 °F 81% 30.24 in 10.0 mi South 12.7 mph 21.9 mph N/A   Overcast
6:51 PM 59.0 °F - 53.1 °F 81% 30.22 in 10.0 mi South 12.7 mph 19.6 mph N/A   Overcast
7:19 PM 59.0 °F - 53.1 °F 81% 30.22 in 10.0 mi South 10.4 mph 20.7 mph N/A   Overcast
7:51 PM 59.0 °F - 54.0 °F 83% 30.21 in 10.0 mi South 10.4 mph 19.6 mph N/A   Overcast
8:51 PM 60.1 °F - 54.0 °F 80% 30.20 in 10.0 mi South 9.2 mph 18.4 mph N/A   Overcast
9:44 PM 60.1 °F - 55.0 °F 83% 30.19 in 10.0 mi SSW 8.1 mph - N/A   Overcast
9:51 PM 60.1 °F - 55.0 °F 83% 30.19 in 10.0 mi SSW 10.4 mph - N/A   Overcast
10:51 PM 60.1 °F - 55.9 °F 86% 30.18 in 10.0 mi SSW 9.2 mph - 0.00 in   Overcast
11:51 PM 61.0 °F - 57.0 °F 87% 30.17 in 10.0 mi South 9.2 mph - N/A   Overcast
11:58 PM 61.0 °F - 57.0 °F 87% 30.17 in 10.0 mi South 10.4 mph - N/A   Overcast